Location: Dappach
(48.9767°N, 9.6998°E)
Time: 01:50:14
(UTC+00:00)

Cosmos 1408 - Pass Details

Date: 23 May 2024
Orbit: 364 x 378 km, 82.6° (Epoch: 13 June)

Event Time Altitude Azimuth Distance (km) Brightness Sun altitude
Exits shadow 01:25:53 23° 158° (SSE) 836 3.4 -14.8°
Maximum altitude 01:27:23 46° 95° (E) 504 2.8 -14.6°
Drops below altitude 10° 01:30:14 10° 21° (NNE) 1,367 6.2 -14.4°
Sets 01:32:15 0° 15° (NNE) 2,222 7.5 -14.2°
